Overview Statistics Trail Chart Weather Telemetry Raw packets
 

This is the latest recevied weather packets stored in our database for station/object NW5W-12. If no packets are shown the sender has not sent any weather packets the latest 10 day(s).

<< 107 108 109 110 111 112 113 >>
Time Temp. Humidity Pressure Rain* Wind** Luminosity Snow
1787893740 19.44° C 54% 1022.2 hPa 0 mm - - -
1787893439 20° C 52% 1022.4 hPa 0 mm - - -
1787893139 20.56° C 52% 1022.8 hPa 0 mm - - -
1787892840 21.11° C 48% 1023.4 hPa 0 mm - - -
1787892540 21.67° C 44% 1023.6 hPa 0 mm - - -
1787892240 21.67° C 43% 1023.8 hPa 0 mm - - -
1787891940 21.67° C 43% 1023.9 hPa 0 mm - - -
1787891639 21.67° C 42% 1024 hPa 0 mm - - -
1787891340 22.22° C 42% 1024 hPa 0 mm - - -
1787891040 22.22° C 42% 1023.9 hPa 0 mm - - -
1787890740 22.22° C 41% 1023.9 hPa 0 mm - - -
1787890440 22.22° C 40% 1023.9 hPa 0 mm - - -
1787890140 22.78° C 39% 1023.8 hPa 0 mm - - -
1787889840 22.22° C 40% 1023.7 hPa 0 mm - - -
1787889540 22.22° C 41% 1023.8 hPa 0 mm - - -
1787889239 22.22° C 40% 1023.7 hPa 0 mm - - -
1787888940 22.22° C 38% 1023.3 hPa 0 mm - - -
1787888640 22.22° C 37% 1022.7 hPa 0 mm - - -
1787888340 22.22° C 37% 1022.3 hPa 0 mm - - -
1787888040 22.22° C 37% 1022.2 hPa 0 mm - - -
1787887740 22.78° C 36% 1022.1 hPa 0 mm - - -
1787887440 22.78° C 35% 1021.9 hPa 0 mm - - -
1787887139 22.78° C 35% 1021.9 hPa 0 mm - - -
1787886840 22.22° C 35% 1021.8 hPa 0 mm - - -
1787886539 22.22° C 36% 1021.7 hPa 0 mm - - -

* Rain since midnight (hover to see other rain measurements)
** Current wind speed in m/s (hover to see current wind gust speed)